This is the latest recevied weather packets stored in our database for station/object K8GLX. If no packets are shown the sender has not sent any weather packets the latest 10 day(s).
| Time | Temp. | Humidity | Pressure | Rain* | Wind** | Luminosity | Snow |
|---|---|---|---|---|---|---|---|
| 1777682535 | 5.56° C | 81% | 1015 hPa | 0 mm | - | 0 W/m² | - |
| 1777682229 | 5.56° C | 81% | 1015 hPa | 0 mm | - | 0 W/m² | - |
| 1777681934 | 5.56° C | 80% | 1014.6 hPa | 0 mm | - | 0 W/m² | - |
| 1777681628 | 5.56° C | 80% | 1014.6 hPa | 0 mm | - | 2 W/m² | - |
| 1777681334 | 5.56° C | 79% | 1014.6 hPa | 0 mm | - | 4 W/m² | - |
| 1777681029 | 5.56° C | 79% | 1014.4 hPa | 0 mm | - | 6 W/m² | - |
| 1777680735 | 6.11° C | 79% | 1014.5 hPa | 0 mm | - | 8 W/m² | - |
| 1777680429 | 6.11° C | 78% | 1014.4 hPa | 0 mm | - | 11 W/m² | - |
| 1777680262 | 6.11° C | 78% | 1014.5 hPa | 0 mm | - | 14 W/m² | - |
| 1777679829 | 6.11° C | 78% | 1014.6 hPa | 0 mm | - | 20 W/m² | - |
| 1777679535 | 6.11° C | 77% | 1014.4 hPa | 0 mm | - | 24 W/m² | - |
| 1777679229 | 6.11° C | 77% | 1014.4 hPa | 0 mm | - | 32 W/m² | - |
| 1777679061 | 6.67° C | 76% | 1014.4 hPa | 0 mm | - | 39 W/m² | - |
| 1777678629 | 6.67° C | 76% | 1014.4 hPa | 0 mm | - | 42 W/m² | - |
| 1777678335 | 6.67° C | 76% | 1014.4 hPa | 0 mm | - | 47 W/m² | - |
| 1777678029 | 6.11° C | 77% | 1014.4 hPa | 0 mm | - | 57 W/m² | - |
| 1777677734 | 6.11° C | 76% | 1014.2 hPa | 0 mm | - | 59 W/m² | - |
| 1777677429 | 6.11° C | 76% | 1014.3 hPa | 0 mm | - | 47 W/m² | - |
| 1777677135 | 6.11° C | 75% | 1014 hPa | 0 mm | - | 40 W/m² | - |
| 1777676939 | 6.11° C | 74% | 1013.9 hPa | 0 mm | - | 43 W/m² | - |
| 1777676661 | 6.67° C | 74% | 1014 hPa | 0 mm | - | 49 W/m² | - |
| 1777676229 | 6.67° C | 72% | 1014.1 hPa | 0 mm | - | 62 W/m² | - |
| 1777675935 | 6.67° C | 73% | 1013.9 hPa | 0 mm | - | 96 W/m² | - |
| 1777675633 | 6.67° C | 72% | 1013.9 hPa | 0 mm | - | 66 W/m² | - |
| 1777675334 | 6.67° C | 70% | 1013.8 hPa | 0 mm | - | 69 W/m² | - |
* Rain latest hour (hover to see other rain measurements)
** Current wind speed in m/s (hover to see current wind gust speed)